Wind_Speed
36 37 36 35 34 35 34 33 32 32 33 35 35 36 36 35 35 37 38 36 36 36 36 36 36 36 37 36 36 36 36 36 36 36 37 37 38 39 38 37 37 36 35 33 33 34 35 36 35 34 33 33 33 32 31 30 32 34 33 32 31 27 27 29 28 28 31 31 26 25 26 27 26 24 25 28 30 32 32 28 26 28 31 32 33 33 33
36 35 34 33 32 33 35 36 35 34 34 35 36 36 36 36 37 39 39 38 37 37 38 39 39 39 40 40 41 41 41 42 42 42 42 42 43 43 42 41 41 40 39 39 37 36 36 37 38 38 37 35 34 34 34 36 37 36 34 33 33 32 33 35 33 31 33 34 32 31 33 34 31 28 29 31 33 35 36 35 35 35 34 34 35 37 37
36 35 34 33 33 34 36 38 38 37 37 37 38 38 38 39 40 41 41 41 40 41 42 44 45 45 45 46 46 46 46 46 46 45 46 47 47 48 47 47 47 46 45 43 40 37 37 37 38 39 39 37 37 36 37 37 37 36 35 35 35 35 36 36 34 35 36 36 37 40 42 42 40 40 41 41 40 40 41 43 45 44 42 42 43 43 42
37 37 36 35 35 35 37 38 39 40 41 41 41 41 41 42 42 43 44 44 45 47 48 48 49 50 50 50 50 49 48 48 47 47 47 48 49 51 52 52 51 50 49 48 47 46 44 41 37 36 36 35 35 35 36 38 39 39 39 38 37 36 37 37 38 38 38 38 39 41 43 43 43 43 43 43 43 43 44 46 48 48 48 48 48 47 46
40 40 39 37 36 36 37 38 39 40 40 40 41 42 43 44 44 45 45 45 47 48 49 49 50 51 51 51 51 50 49 49 48 48 48 48 48 50 51 52 52 52 51 51 51 51 49 45 40 39 40 40 39 39 41 41 42 42 41 39 39 39 40 42 42 41 41 41 41 42 42 41 40 40 41 42 43 44 45 47 48 48 48 48 48 48 49
42 42 42 41 41 41 41 40 40 39 38 37 38 40 41 42 43 43 43 43 44 46 47 47 48 49 50 50 51 50 50 49 48 47 46 47 47 47 48 48 48 50 50 51 52 52 51 50 49 48 49 48 46 45 45 42 40 40 40 39 40 42 44 45 45 44 43 43 42 42 41 40 40 40 41 42 43 45 46 46 46 46 46 46 46 47 48
45 46 45 44 44 44 44 43 43 42 41 40 39 40 41 42 43 43 44 44 46 47 47 47 47 47 48 48 49 48 48 48 47 45 44 44 44 44 44 44 44 45 47 49 51 52 53 53 54 53 52 51 50 49 47 44 42 40 40 40 41 43 44 45 45 44 43 42 42 42 42 41 42 43 43 44 45 46 47 47 48 48 48 48 47 47 47
45 46 46 45 45 45 44 44 44 44 44 43 42 43 44 46 46 46 47 47 48 49 49 49 48 48 48 48 49 49 50 49 48 47 46 45 44 43 43 44 44 43 43 43 43 44 47 48 48 49 50 50 50 50 47 46 45 45 45 46 46 46 46 47 47 46 45 44 43 43 43 44 45 46 47 47 48 49 49 50 52 52 52 51 49 48 47
44 45 45 46 47 48 47 46 45 44 44 45 45 46 46 47 48 48 48 49 50 51 51 51 51 51 52 52 52 53 52 52 51 49 48 47 47 46 45 46 47 46 45 43 41 41 44 46 46 48 50 50 49 48 47 48 50 52 54 54 54 53 52 51 50 50 49 48 47 47 47 48 49 50 50 51 51 51 51 52 53 53 53 52 51 50 49
45 45 46 47 49 50 49 48 47 45 45 45 46 47 48 49 49 49 50 50 50 51 51 52 52 52 52 53 53 53 52 52 51 50 50 49 49 48 47 47 48 48 49 50 51 51 50 49 47 48 49 50 49 49 50 51 52 54 56 57 56 56 56 55 54 53 52 51 52 52 52 53 53 53 52 52 52 52 53 53 53 53 52 52 52 51 50
49 49 50 50 51 51 50 49 48 46 45 45 45 45 46 47 47 48 49 50 50 51 51 51 51 50 50 51 51 51 51 51 51 51 51 51 50 48 48 48 49 49 50 51 53 54 53 51 50 50 50 51 51 51 50 50 50 50 52 53 53 54 55 55 55 56 56 55 56 56 55 55 54 53 52 52 53 54 54 54 54 53 52 52 52 52 52
51 52 52 52 53 53 52 50 48 47 45 44 43 43 44 45 44 45 46 46 47 48 49 49 48 48 48 48 48 49 49 50 51 51 52 52 50 50 50 50 50 51 52 52 53 55 56 55 54 53 50 50 51 52 51 52 53 54 55 56 55 55 55 55 55 56 57 56 55 55 54 54 53 53 52 53 54 55 55 55 55 54 52 52 52 53 53
50 51 51 52 52 52 50 48 47 46 45 44 44 44 45 45 45 46 46 46 47 48 48 48 47 47 47 47 47 47 48 49 50 51 52 53 51 50 50 50 50 51 52 53 54 55 56 56 56 55 53 52 52 53 55 57 58 58 57 57 58 58 58 58 58 59 59 60 58 57 55 55 55 55 55 55 54 55 55 55 54 54 53 52 53 53 54
48 48 49 49 50 50 49 48 47 47 45 43 43 43 44 45 46 47 47 47 47 47 47 47 47 47 48 48 49 50 50 51 51 52 54 55 54 53 52 52 52 54 55 56 56 56 57 57 58 58 58 58 58 58 58 59 59 57 56 56 57 58 58 57 58 58 60 62 62 61 59 59 59 59 58 57 55 54 54 53 53 53 53 52 52 53 53
43 43 44 45 47 49 49 48 47 46 44 43 44 44 44 44 43 42 41 42 43 44 45 46 47 48 49 50 51 52 53 54 54 54 55 57 58 58 58 58 59 59 60 61 60 59 60 61 61 62 62 62 62 62 63 64 64 64 63 61 61 61 61 61 61 61 61 62 64 65 64 64 63 62 61 59 58 55 52 51 51 51 51 50 50 51 51
39 40 42 43 44 44 45 45 45 44 43 43 44 44 43 42 41 41 42 43 44 46 47 48 49 51 51 52 54 55 56 57 58 58 59 59 59 59 60 60 61 62 62 63 62 62 63 64 64 64 64 65 65 65 65 66 67 69 70 70 70 69 69 68 67 65 64 64 66 67 68 68 67 65 63 61 60 57 54 51 49 48 47 48 48 49 50
38 40 42 44 43 43 43 43 43 44 44 44 43 43 43 44 46 47 48 49 50 51 52 53 54 55 56 56 57 58 59 59 60 60 61 61 61 60 60 60 61 62 63 63 63 63 64 65 66 66 66 67 68 67 66 66 67 68 70 72 73 74 74 73 71 69 68 67 67 69 70 69 67 65 64 62 59 57 54 52 50 48 47 46 46 47 48
39 41 42 43 43 44 44 44 45 45 45 45 46 47 49 50 51 51 51 52 52 53 53 54 55 56 56 57 57 58 58 59 59 59 60 60 60 60 60 60 60 61 62 63 63 64 64 65 67 67 68 68 69 69 68 68 68 69 69 70 71 72 72 71 70 69 69 68 68 67 66 64 63 62 61 59 57 55 53 52 51 50 49 46 45 45 46
39 41 43 43 43 43 44 45 46 47 48 49 50 51 51 51 51 51 50 50 50 51 51 52 52 52 52 53 53 54 55 55 56 57 57 58 58 58 58 59 60 60 60 60 61 62 63 65 66 67 68 68 68 69 68 69 69 70 70 70 71 71 71 70 69 68 67 65 64 62 61 60 59 58 57 56 54 54 53 52 51 50 49 46 43 43 45
36 39 41 43 43 44 45 46 47 48 49 49 49 49 49 48 48 48 48 48 48 49 49 50 50 50 51 52 52 53 54 55 55 56 56 56 57 57 57 58 59 59 59 58 59 59 60 62 64 66 66 67 67 66 66 67 67 68 69 69 69 69 69 69 69 69 67 65 62 61 60 59 58 57 56 54 54 53 52 52 51 50 48 46 43 43 44
32 34 36 37 39 40 41 42 43 43 43 43 43 44 45 46 46 46 47 48 49 49 50 50 51 52 53 53 54 54 55 56 57 57 57 57 58 58 58 59 59 60 59 59 59 59 59 60 62 63 64 65 65 66 65 65 65 65 66 66 66 66 66 66 66 67 66 64 62 61 61 61 60 59 56 54 53 52 51 50 50 48 47 46 45 45 44
27 28 30 32 33 35 37 38 38 39 39 40 41 43 44 45 46 47 48 49 50 50 51 52 53 53 54 55 55 55 56 57 58 58 58 59 59 59 60 60 61 61 61 61 61 60 60 60 61 62 63 63 65 66 66 66 66 65 64 64 63 63 63 63 63 64 64 63 61 60 60 60 59 58 56 54 52 50 49 48 46 45 45 45 45 44 43
26 27 29 31 33 34 35 36 37 38 39 40 41 42 43 44 45 46 47 48 49 50 51 52 53 54 55 55 55 55 54 55 56 57 58 58 58 58 58 58 59 59 59 60 61 61 61 61 62 62 62 63 64 65 66 67 67 66 65 64 63 62 62 61 61 61 62 61 60 58 58 57 57 57 55 53 51 49 47 45 44 44 44 45 45 44 43
27 29 30 31 33 34 34 35 36 37 38 39 40 41 42 43 44 45 46 47 48 49 49 50 50 50 50 49 49 49 49 49 51 53 54 54 53 53 52 52 53 54 54 55 56 57 58 59 60 61 61 62 63 64 65 66 67 68 67 66 64 62 62 61 60 60 60 59 58 57 56 55 55 55 53 51 50 48 46 45 45 45 45 45 45 44 43
28 29 30 31 32 32 33 34 35 36 37 38 39 40 41 42 43 43 43 42 43 42 41 40 38 38 37 37 39 40 42 43 44 45 45 44 44 45 45 46 46 47 47 48 48 49 50 51 53 55 57 58 60 62 64 65 66 67 67 66 65 63 62 62 61 60 59 57 56 55 55 54 53 52 51 50 48 47 46 46 46 46 46 45 44 44 43
26 28 29 29 30 31 32 33 34 35 36 37 37 37 37 36 36 35 33 32 31 30 29 28 28 28 30 31 33 35 36 36 36 36 36 35 35 36 37 38 39 39 40 40 40 40 41 43 45 48 50 52 54 56 59 61 62 64 64 64 64 63 62 62 61 61 60 57 55 54 54 53 52 51 50 49 47 46 46 46 46 46 45 44 44 44 43
24 26 26 27 28 29 30 32 32 33 33 33 33 31 29 27 26 24 23 22 21 21 22 23 24 26 28 29 29 29 29 29 29 29 29 29 29 30 30 31 31 31 30 30 30 31 34 36 39 41 43 44 45 47 49 51 54 56 58 59 60 60 59 59 59 60 59 58 55 53 52 51 51 50 50 49 47 46 45 45 45 44 43 43 43 43 43
23 24 24 25 26 27 28 29 29 29 29 28 26 24 22 20 19 19 20 19 19 19 21 22 23 24 24 24 24 25 25 25 24 24 24 24 24 24 24 25 25 25 26 26 27 29 30 31 31 31 32 33 35 37 38 40 43 45 47 50 52 53 54 54 55 56 57 57 55 53 51 50 50 50 49 48 47 46 45 44 44 43 42 42 41 41 41
22 23 24 25 25 25 26 25 24 25 25 23 20 19 18 17 17 17 18 18 18 19 20 21 22 22 21 21 20 19 18 17 17 16 17 17 16 16 16 16 17 18 19 20 20 20 19 17 16 16 18 21 24 26 28 30 32 34 37 40 43 45 47 48 50 51 52 52 51 50 50 49 48 48 48 47 45 44 44 43 42 42 41 40 40 39 39
22 22 23 24 24 23 22 21 21 21 20 19 17 16 16 16 16 15 16 16 17 17 17 19 20 20 18 16 14 12 11 11 11 12 12 12 10 7 6 5 6 7 8 9 9 8 8 7 7 9 12 14 16 17 18 19 19 20 23 25 28 31 34 37 41 43 45 46 46 45 45 45 45 44 44 43 42 42 42 41 41 40 39 38 37 35 33
22 23 23 23 22 20 18 18 18 17 16 15 15 15 15 14 14 14 14 14 13 14 15 16 16 14 11 9 9 10 10 10 9 9 8 8 8 8 8 7 6 5 4 4 3 3 3 3 4 5 7 10 12 13 13 13 12 13 13 14 15 17 20 24 27 31 33 35 36 37 38 38 38 38 38 37 36 37 37 37 36 35 33 31 30 28 27
21 22 22 21 19 17 16 15 14 13 13 13 13 13 13 12 13 12 11 11 11 12 12 11 9 9 11 14 16 17 17 17 17 15 13 13 14 15 15 15 13 12 11 10 9 9 8 7 6 5 5 6 7 7 6 6 6 7 8 11 13 14 15 16 17 20 22 25 26 28 28 29 28 29 29 29 29 30 29 28 27 26 24 23 23 22 21
21 21 20 18 16 14 13 12 11 11 11 11 12 12 11 11 11 10 8 8 9 8 6 7 9 12 15 17 18 18 19 19 18 17 16 17 18 18 18 17 16 14 13 13 13 12 12 12 10 8 6 5 4 2 1 2 2 1 2 6 10 14 15 15 15 16 17 18 18 18 18 19 20 22 23 24 25 25 24 22 19 18 18 18 18 18 18
20 19 18 16 14 12 11 11 10 10 10 10 11 11 10 10 10 8 6 7 7 4 5 8 9 11 13 15 16 16 18 19 19 20 20 20 20 19 18 16 14 13 13 13 13 13 12 12 11 9 8 8 8 7 8 9 10 10 9 6 4 7 10 11 12 13 13 14 16 16 16 18 20 21 22 22 22 21 20 19 17 17 17 17 17 17 17
18 17 15 14 12 11 11 10 9 9 8 9 10 10 10 9 8 6 4 5 4 3 6 6 6 7 8 10 10 13 16 18 20 21 22 21 20 20 20 19 16 13 12 12 11 11 11 12 12 12 12 12 12 12 12 12 12 12 13 14 14 12 11 10 11 12 13 16 18 18 17 16 17 18 18 18 18 18 17 17 18 18 17 17 17 17 17
16 15 13 12 11 10 10 9 8 6 7 8 9 9 9 8 6 3 3 4 1 4 5 2 3 6 7 6 6 8 12 16 18 19 20 20 19 21 22 22 18 15 12 11 11 12 13 14 14 15 15 14 13 13 14 12 10 9 11 13 16 17 17 17 19 20 19 19 19 18 17 16 16 16 16 16 16 16 16 17 18 18 18 17 17 17 17
15 13 12 11 10 9 9 8 6 5 5 6 7 8 8 7 4 2 2 2 1 4 4 2 1 5 6 6 5 5 8 11 14 15 16 17 17 18 19 19 17 14 13 11 10 12 15 15 16 17 17 16 14 15 16 15 13 11 12 12 13 13 13 14 16 17 17 16 15 15 15 14 14 14 14 15 15 16 17 18 18 17 17 17 16 15 15
13 12 12 10 9 9 9 7 5 4 4 5 6 7 7 5 2 2 2 1 2 4 3 1 1 2 4 5 6 7 7 8 10 11 12 12 13 13 14 14 14 14 13 12 11 12 14 16 17 18 18 18 16 17 19 20 18 15 13 11 9 9 10 11 11 11 12 12 13 13 14 13 12 12 13 14 15 16 17 17 17 17 16 15 14 12 12
12 12 12 11 9 9 8 6 4 4 4 4 5 5 5 3 0 2 2 1 2 3 3 2 1 1 2 4 5 6 7 7 8 9 8 9 9 9 10 12 13 14 15 15 15 14 14 15 16 16 17 18 19 19 20 21 20 17 15 13 11 11 11 12 11 10 11 13 13 13 13 13 12 13 14 14 15 16 16 16 16 16 14 13 11 11 13
12 11 11 10 10 8 6 5 4 3 3 3 4 4 4 4 3 2 1 2 2 3 3 3 2 1 1 2 3 4 4 4 4 5 6 8 8 8 9 10 11 12 14 16 16 16 16 17 17 16 15 15 16 17 17 18 18 17 17 17 16 14 14 13 13 13 13 14 14 14 14 14 13 13 14 15 15 16 15 15 14 13 12 11 12 15 18
13 11 11 10 10 9 6 4 3 3 3 3 3 3 3 4 5 5 4 3 2 2 2 3 3 2 0 2 2 2 2 1 1 1 4 8 9 9 8 8 8 9 11 14 15 16 16 18 18 18 16 15 14 14 13 13 13 13 14 15 16 17 16 15 14 14 14 14 15 15 15 14 13 12 12 13 13 13 13 12 12 11 11 13 16 19 20
13 12 12 11 10 9 7 5 3 3 3 3 3 3 2 3 3 4 4 3 2 1 0 0 1 1 3 6 6 6 5 4 3 4 5 6 8 9 8 8 6 6 7 10 13 14 15 16 17 17 17 16 15 14 13 12 11 10 10 10 11 12 13 13 13 13 13 13 13 12 11 10 9 9 9 9 9 9 10 10 11 12 15 18 20 20 18
14 14 13 12 12 10 8 5 4 4 3 3 3 3 3 2 2 2 2 2 2 2 2 2 2 3 5 7 7 7 6 6 5 5 5 6 6 7 8 7 6 5 4 6 9 10 11 13 14 15 15 15 15 15 14 13 12 11 10 9 8 7 7 7 8 8 9 9 8 7 6 6 5 5 6 6 7 7 9 11 14 17 19 20 19 17 16
14 15 15 14 13 12 10 8 6 5 5 4 4 4 3 2 2 1 1 2 3 3 3 4 4 4 5 6 6 5 4 3 3 3 3 4 5 5 6 6 6 6 6 6 6 6 7 8 9 10 11 12 13 13 13 13 13 12 12 10 9 8 7 6 5 5 4 4 4 4 3 3 3 4 5 6 7 9 11 14 17 19 19 19 17 16 14
13 15 16 15 14 13 12 10 9 8 7 7 6 5 5 4 4 3 3 2 1 2 3 4 4 4 5 6 6 6 5 4 3 2 1 1 1 1 3 4 5 6 7 7 7 7 6 5 5 6 7 8 9 10 10 10 11 11 12 11 11 10 9 8 7 6 5 4 3 3 2 3 4 5 7 9 10 12 14 16 17 18 17 16 15 14 13
13 15 17 17 16 15 14 13 11 10 10 9 8 7 6 6 6 5 5 4 3 2 2 2 3 4 5 6 6 6 6 5 4 4 4 3 3 2 1 1 2 3 4 6 7 7 8 7 6 5 5 5 5 6 6 7 7 8 8 9 9 9 9 8 8 7 6 6 5 4 3 2 3 5 7 9 11 13 15 16 16 16 16 15 14 14 13
12 14 17 19 19 18 17 15 13 12 12 12 11 9 8 8 8 8 7 6 5 4 3 2 1 2 3 4 4 4 4 4 4 5 5 5 4 3 3 3 3 2 2 3 4 5 6 7 7 7 7 6 5 4 4 4 4 4 4 5 5 6 6 6 6 5 5 5 4 4 3 2 2 4 5 7 9 11 13 14 15 15 15 15 15 15 14
12 14 17 19 20 20 19 17 16 14 14 13 13 12 11 10 10 10 10 9 8 7 6 5 4 3 3 3 3 2 2 2 3 3 3 3 3 3 3 4 4 4 4 4 3 4 4 5 5 6 7 7 7 6 6 6 6 5 5 4 3 3 3 2 2 2 2 1 1 1 1 1 2 3 5 6 8 9 11 12 13 14 15 15 15 16 16
13 13 16 19 21 22 21 20 18 17 16 15 15 14 14 13 13 13 13 12 11 10 9 8 7 6 6 5 4 3 2 1 1 2 3 4 4 4 4 4 4 4 4 4 4 4 5 5 5 6 6 7 8 8 8 7 7 7 8 8 7 7 6 6 5 4 4 4 4 4 4 4 5 6 6 7 8 9 10 11 12 13 14 15 16 17 17
13 13 14 17 21 23 24 23 21 20 19 17 17 16 16 15 15 15 15 15 14 13 12 11 10 9 8 8 7 6 5 4 4 3 4 5 6 6 7 7 7 7 7 7 7 6 6 6 6 7 7 8 9 9 10 10 10 9 9 9 10 10 10 10 10 10 9 9 9 9 9 9 9 9 10 10 11 11 12 13 14 15 16 17 17 18 19
14 14 14 16 19 23 25 25 24 23 22 20 19 18 18 17 17 17 16 16 16 15 15 14 13 12 11 11 10 9 9 8 8 7 7 7 7 7 8 8 9 10 10 11 11 11 11 10 10 9 9 9 10 11 12 12 13 13 13 12 12 13 13 13 13 14 14 14 14 15 15 15 15 15 15 15 16 16 16 17 17 18 19 19 20 21 21
14 14 15 15 17 20 24 26 27 25 24 23 22 21 20 19 19 19 18 18 17 17 17 16 16 15 14 13 13 12 11 11 11 11 10 10 10 10 9 9 10 11 12 13 14 14 15 15 15 15 14 14 13 13 13 14 15 16 16 17 17 17 17 17 17 17 17 18 18 19 19 20 20 21 21 21 21 21 22 22 22 23 23 23 24 24 25
Wind_Direction
231 227 228 232 233 234 235 237 239 242 244 246 246 247 250 253 253 251 252 256 258 260 262 261 260 261 262 264 264 265 267 268 270 269 268 267 268 270 272 273 273 272 269 268 268 269 273 277 276 274 274 273 272 271 269 274 281 282 284 286 284 280 277 277 274 266 261 265 274 276 271 269 266 259 256 259 262 265 266 266 271 274 272 269 268 268 269
238 235 235 238 238 236 238 241 243 244 243 244 244 246 250 253 253 254 256 258 258 259 260 261 261 262 263 264 266 267 270 272 274 274 273 272 271 271 271 270 271 271 268 268 270 270 271 274 274 273 272 270 268 268 270 274 279 278 278 279 276 270 267 269 271 269 266 265 268 269 269 270 266 256 256 266 272 272 268 266 270 275 271 268 272 272 271
245 246 247 250 248 244 242 244 246 247 247 246 246 246 249 252 253 255 258 259 259 258 259 261 263 265 266 266 267 268 269 271 273 274 275 275 274 273 272 270 270 269 267 266 267 265 265 269 272 270 268 267 267 271 274 276 277 276 277 278 277 272 269 269 271 272 272 269 264 263 268 272 271 266 267 272 275 274 272 271 274 276 273 272 275 276 274
253 255 257 259 257 253 249 248 247 249 250 249 249 250 251 252 254 255 258 259 259 260 262 264 266 268 268 268 269 270 271 271 271 272 272 272 272 271 272 272 272 270 268 267 266 265 265 267 269 265 264 265 269 273 274 274 275 276 278 279 278 274 270 271 272 272 272 271 268 270 274 276 274 271 271 274 274 274 275 276 277 277 276 275 275 275 275
258 259 259 259 258 255 253 250 249 250 251 250 251 252 252 253 255 257 259 260 261 263 264 266 267 269 270 270 271 272 272 272 272 273 273 271 269 269 270 271 271 269 269 269 268 266 265 266 265 262 262 266 270 272 273 273 274 274 274 274 273 271 270 271 272 271 271 271 272 275 278 278 277 274 273 274 275 275 276 275 275 275 276 276 275 275 274
260 259 259 258 257 256 256 255 255 255 255 254 254 254 254 254 255 257 259 261 263 265 266 266 267 268 268 269 270 271 272 273 274 273 272 270 269 268 268 268 268 267 267 268 268 268 267 266 265 264 264 266 268 270 270 271 271 269 267 268 269 270 271 273 273 271 270 271 273 274 275 276 276 276 275 276 277 277 277 276 276 277 278 277 276 275 274
263 262 262 261 260 260 261 262 262 261 261 260 260 259 258 258 259 260 262 263 265 266 266 266 266 266 266 265 266 267 268 270 271 270 269 268 267 267 266 266 266 265 266 268 269 269 268 267 267 266 266 265 266 267 268 268 267 264 263 266 268 270 273 274 273 272 271 270 270 271 271 272 274 274 274 276 278 279 278 278 278 279 279 278 276 274 272
263 263 263 264 264 263 264 265 265 265 264 265 264 263 262 262 263 264 265 266 266 265 265 265 265 265 265 265 265 266 267 267 267 266 265 264 263 263 262 262 262 263 266 271 273 271 267 265 265 266 267 267 266 266 266 265 263 263 263 266 268 269 271 272 272 272 271 270 268 268 269 270 272 272 271 273 276 278 278 278 278 278 278 277 275 273 272
261 262 263 265 265 264 264 264 266 267 268 268 267 266 265 265 265 265 265 264 264 263 263 264 265 266 267 267 268 268 268 268 266 265 263 262 261 260 259 259 258 258 258 260 261 263 266 269 270 270 269 268 267 267 267 265 263 264 265 266 267 267 268 269 268 268 268 268 267 267 267 268 270 270 269 271 275 278 279 279 278 278 278 278 277 275 274
258 260 261 262 264 265 266 266 267 268 268 268 268 267 267 266 265 264 263 262 261 261 262 263 264 265 266 268 269 269 269 269 267 266 265 263 262 261 260 258 257 256 254 252 253 256 262 267 269 269 268 268 268 268 268 265 263 263 264 265 266 266 266 265 264 264 264 265 267 268 269 269 269 269 269 271 275 278 280 279 278 277 277 277 277 277 276
259 260 261 263 265 266 267 267 267 267 267 267 268 266 265 264 264 264 264 263 262 262 262 262 263 264 264 265 266 267 268 267 267 267 267 266 264 263 261 259 257 255 253 253 253 255 257 258 260 261 264 266 266 267 267 265 262 261 262 263 264 265 265 264 263 262 263 264 266 268 269 269 268 266 268 272 276 279 281 279 276 275 274 274 274 274 274
261 262 263 264 265 266 267 268 268 267 266 266 264 263 262 264 264 264 264 265 265 265 264 263 263 263 263 263 263 263 265 266 266 266 266 266 266 265 263 261 259 256 255 254 254 254 255 255 255 256 259 261 262 262 263 264 265 265 265 266 265 264 263 262 261 261 260 261 263 265 267 267 265 264 267 274 279 280 281 279 276 273 271 270 270 271 271
260 262 263 264 265 266 267 268 268 266 266 264 262 262 263 265 265 264 263 264 265 265 264 263 262 262 261 261 260 260 262 263 264 264 263 264 265 264 263 262 260 258 257 257 257 257 256 255 255 254 254 254 256 257 258 261 265 268 269 269 269 267 265 264 263 262 261 261 263 265 264 263 262 263 268 275 279 281 280 278 275 271 269 268 269 269 270
258 259 261 263 265 266 266 266 267 267 267 266 265 265 266 266 266 266 266 265 265 264 263 263 261 260 259 259 258 259 259 259 259 259 260 261 263 263 262 261 260 259 259 259 259 258 257 257 257 257 255 253 253 253 253 254 257 260 262 264 267 267 266 265 264 264 264 264 265 265 264 263 263 265 269 274 278 279 277 275 273 270 268 268 269 270 270
258 258 259 259 260 262 264 266 267 268 268 268 268 269 268 268 268 268 268 267 266 264 264 263 262 260 259 258 258 258 259 259 259 258 259 260 262 263 263 262 262 261 262 261 260 258 257 257 257 258 257 256 255 254 252 252 252 253 254 255 257 259 260 260 261 261 261 262 263 264 264 264 265 266 269 273 276 275 273 271 271 270 268 268 269 270 270
252 253 255 257 259 261 264 266 266 267 267 267 268 269 269 270 270 270 269 267 265 263 263 263 263 262 261 261 260 260 260 260 260 260 261 262 262 262 262 262 262 262 262 262 262 261 260 259 258 258 258 257 257 256 256 255 254 254 253 253 254 255 257 258 259 260 260 260 262 264 265 267 268 270 272 273 274 273 271 269 269 267 266 266 267 267 268
245 246 248 251 255 259 261 263 264 265 265 266 267 268 270 271 271 271 270 268 267 266 266 265 265 265 264 264 264 264 263 263 262 262 263 263 262 262 261 261 261 262 262 262 262 261 261 260 260 260 260 259 259 258 257 258 257 256 256 255 256 257 258 259 260 260 260 261 263 265 267 269 271 272 273 273 273 273 272 271 269 267 265 264 263 264 265
242 244 245 246 248 252 256 260 264 267 269 270 271 271 272 272 272 272 272 271 271 270 269 268 268 267 267 267 267 266 266 265 265 265 265 264 264 263 262 261 260 260 260 261 261 261 261 261 260 260 260 260 260 260 260 259 259 259 258 257 257 258 259 260 261 262 263 264 265 267 269 271 272 272 272 273 273 273 273 272 270 269 267 265 265 265 264
246 248 249 250 252 254 258 263 267 269 271 271 272 272 272 273 273 273 273 273 272 272 271 271 271 270 270 270 269 268 268 267 267 267 266 266 265 265 264 263 262 260 259 259 259 259 260 260 261 261 261 260 260 260 260 260 260 260 260 259 259 259 259 259 260 261 262 264 265 267 268 269 269 270 270 271 272 272 272 270 269 268 267 267 267 266 263
253 254 255 257 258 260 262 264 266 267 269 270 271 272 273 274 274 274 274 274 273 273 273 273 272 272 272 271 270 269 269 269 268 268 267 267 266 266 265 264 263 262 261 259 258 258 258 258 259 260 260 261 261 261 260 259 259 260 260 260 260 260 260 260 260 260 261 261 263 264 265 265 266 266 267 268 269 270 269 268 267 266 265 264 264 264 264
255 257 258 260 261 262 263 264 265 266 268 270 272 273 274 275 275 275 276 276 276 276 275 275 275 274 274 273 273 272 272 271 271 270 269 268 268 267 266 265 265 264 263 262 260 259 258 257 256 257 257 259 260 261 261 260 259 259 259 259 259 259 260 260 260 260 260 260 260 261 262 262 263 263 264 265 266 266 267 266 266 264 263 261 260 261 263
260 260 261 263 264 265 266 267 268 269 271 272 272 273 274 276 277 277 277 278 278 278 278 277 277 276 276 276 275 275 274 273 272 271 270 270 269 268 268 267 267 266 265 264 263 261 259 258 256 255 255 256 257 258 259 259 259 259 259 258 258 258 259 259 259 260 260 260 260 259 260 260 261 261 261 261 262 263 264 264 264 263 262 261 260 260 260
264 263 263 263 264 265 267 269 271 272 274 274 274 275 276 276 276 276 276 277 277 277 277 277 277 277 277 277 277 276 276 275 274 272 271 270 269 269 268 267 267 267 267 266 265 263 262 260 258 256 255 254 254 255 255 256 257 257 257 258 257 257 257 257 257 258 259 259 259 259 258 258 259 258 258 259 260 260 261 261 261 261 260 260 261 261 261
267 266 266 266 267 268 269 270 271 272 273 273 274 274 275 275 275 276 276 277 277 277 278 278 278 278 278 278 278 277 276 275 274 273 272 272 271 270 269 268 267 266 266 266 265 264 263 262 261 259 257 255 254 254 254 253 254 254 255 255 255 256 256 256 256 256 256 257 257 257 257 256 256 256 256 256 257 257 257 258 259 259 259 259 260 261 262
270 271 271 271 272 272 272 273 273 273 274 275 276 276 277 277 278 278 279 279 280 280 280 281 281 281 281 280 278 277 276 276 277 277 277 276 275 272 270 269 267 266 266 266 266 266 265 264 263 262 260 258 256 255 254 254 254 254 254 254 254 254 254 255 255 255 255 255 254 255 255 255 255 255 254 254 254 254 254 254 255 256 257 259 260 261 262
272 272 272 272 273 274 275 276 277 278 279 280 281 281 282 283 283 284 284 284 285 285 286 285 286 286 285 284 283 283 283 284 284 283 281 279 276 274 272 270 269 269 269 269 269 268 267 265 264 263 261 260 258 257 256 256 255 255 255 254 254 253 253 253 254 254 254 254 253 253 254 254 254 254 253 253 253 252 252 253 253 254 255 257 259 260 261
274 274 275 276 278 280 281 282 283 284 285 286 287 289 289 290 290 291 292 293 293 293 292 293 293 292 291 290 291 291 290 288 285 284 283 282 281 279 277 276 275 274 274 272 271 270 269 267 265 264 262 260 259 259 259 258 257 256 256 255 255 254 253 252 252 252 253 253 252 251 252 252 252 253 253 252 252 252 252 253 253 253 254 255 257 258 260
279 279 280 283 285 287 288 288 289 290 291 292 293 294 294 295 296 298 300 301 301 301 301 300 298 297 298 299 298 294 290 288 288 288 288 288 287 284 281 278 277 275 274 273 273 274 275 274 272 270 266 263 261 260 260 258 256 255 253 253 252 251 251 250 250 250 251 251 251 251 250 250 250 251 251 251 251 252 252 253 253 253 254 255 256 258 260
284 285 288 290 291 292 292 292 292 292 293 295 296 296 297 298 300 301 302 304 305 305 304 304 305 308 311 309 303 298 299 304 307 308 308 306 300 293 286 281 278 275 273 273 276 279 281 281 278 271 264 260 259 259 258 257 256 253 251 250 249 247 247 246 246 247 247 248 248 249 248 248 248 249 249 250 251 251 252 253 254 254 255 255 256 258 260
292 294 296 296 296 295 295 294 293 293 294 297 299 300 302 304 303 303 304 305 305 307 310 313 316 320 322 318 316 322 330 333 332 330 331 330 328 321 316 309 298 287 282 283 287 293 296 295 288 274 263 261 262 263 263 262 260 256 253 251 249 247 246 244 244 244 245 245 245 245 245 245 245 245 246 247 248 249 251 252 253 254 255 255 256 257 257
299 300 300 299 298 298 298 297 296 296 299 303 305 307 307 305 303 304 306 307 311 318 323 325 328 335 345 358 12 25 31 30 25 19 14 18 30 43 48 48 44 32 16 12 18 23 16 350 321 300 282 273 271 269 266 262 259 256 254 252 251 248 246 244 243 242 242 242 241 241 241 242 242 242 243 243 244 246 247 249 250 250 251 252 251 250 248
302 303 302 300 299 299 299 299 300 302 307 310 310 309 307 304 304 307 310 314 321 328 334 340 357 25 47 56 60 62 64 65 66 68 73 75 74 71 68 64 61 58 59 64 67 63 54 43 24 2 330 302 290 282 272 265 260 257 253 249 246 242 239 237 236 235 235 235 234 235 236 236 236 237 236 234 234 237 240 241 241 241 239 237 235 232 230
305 303 301 300 301 302 302 303 308 313 315 314 311 309 307 307 310 313 314 316 325 338 7 40 54 63 68 70 72 72 70 67 66 69 73 73 71 67 63 60 58 59 62 63 57 45 37 31 24 17 10 3 2 18 60 73 63 42 263 239 231 229 229 229 226 223 223 222 218 217 219 218 216 218 219 218 219 223 223 220 218 216 214 214 213 211 209
306 302 299 299 302 304 306 310 315 318 317 315 315 314 314 315 319 317 308 312 326 5 78 74 63 66 73 74 74 72 68 61 56 55 58 59 59 58 56 52 50 49 50 51 47 38 32 32 32 34 40 49 58 74 90 92 86 77 72 81 140 190 206 212 212 210 206 196 187 187 194 198 197 200 203 202 202 203 202 197 194 192 192 194 195 195 196
304 298 294 295 298 303 308 313 315 316 318 321 323 321 318 319 322 316 302 312 338 90 113 93 64 60 65 67 68 68 64 58 51 48 50 53 55 56 52 47 44 44 43 44 44 40 38 41 47 53 57 58 61 73 87 93 89 81 77 80 86 96 112 130 141 147 151 153 156 162 171 177 180 184 186 183 182 184 186 184 182 182 183 186 189 192 196
301 293 287 287 294 302 308 312 313 316 324 331 331 327 322 322 324 314 300 311 346 136 145 131 57 54 56 63 71 64 58 56 50 45 45 47 48 47 43 38 37 43 49 49 49 50 52 52 55 60 64 66 70 80 90 95 91 78 74 80 84 87 93 104 113 119 124 129 135 141 148 156 166 172 174 174 175 177 178 178 179 181 185 188 191 194 196
297 286 280 282 290 299 305 309 309 315 329 342 343 336 330 329 325 281 273 288 198 163 178 212 59 62 62 73 86 72 58 55 51 45 42 44 45 43 37 30 28 35 44 47 49 56 62 63 62 63 68 73 80 88 93 93 88 76 68 71 76 79 87 99 107 112 117 123 131 141 149 155 163 168 170 171 172 173 175 178 182 184 186 187 189 191 195
292 278 273 277 286 295 300 304 303 306 322 346 352 344 336 329 301 236 230 222 163 162 176 200 115 79 64 69 91 106 103 85 69 56 47 45 47 44 34 26 27 35 40 43 46 54 63 68 68 67 68 73 80 89 93 92 89 82 77 80 83 85 94 106 113 119 127 138 149 157 159 160 163 167 169 171 173 173 174 178 180 181 183 187 191 196 200
289 270 264 269 279 287 293 296 293 294 307 332 345 347 350 359 340 202 197 140 116 130 141 149 156 148 88 68 91 119 127 109 90 75 55 43 46 43 31 28 34 39 40 42 44 45 50 59 63 64 67 71 75 82 88 92 92 91 89 91 95 102 112 124 133 141 148 153 158 160 162 166 171 173 173 175 176 174 173 176 180 184 189 194 197 197 192
287 265 255 259 269 276 280 281 278 283 301 318 325 335 357 27 46 46 42 66 77 81 85 87 87 82 62 64 90 116 125 114 99 77 38 21 20 22 22 28 37 42 43 47 49 48 47 50 51 52 55 61 67 72 79 85 90 93 94 94 96 101 110 121 130 136 141 146 150 152 156 162 166 168 171 174 175 174 175 180 186 190 194 195 190 184 179
287 266 251 251 260 265 264 264 265 274 299 313 309 313 343 15 29 25 21 37 66 62 60 72 72 64 112 204 196 181 171 173 162 359 355 358 0 3 8 17 28 37 44 50 54 55 55 54 51 49 48 49 52 57 64 72 79 87 94 98 102 106 110 115 121 127 133 139 145 148 150 152 153 155 161 167 170 172 177 183 187 190 192 188 181 175 174
283 267 251 245 251 255 253 252 252 259 287 304 291 277 299 344 8 16 20 30 51 51 37 113 124 162 190 199 205 209 211 219 249 281 304 326 340 345 349 358 6 16 32 45 52 57 60 59 56 53 53 53 52 51 53 56 60 68 76 87 98 107 114 121 127 133 137 143 148 149 149 147 144 143 147 155 162 167 175 182 187 187 185 180 175 173 175
274 262 249 242 245 248 247 243 241 241 254 277 272 250 244 281 335 9 40 58 74 102 125 138 155 174 187 197 204 209 212 223 243 267 284 299 314 321 327 338 347 343 348 16 37 49 57 58 57 53 53 54 57 59 60 60 59 59 61 65 73 84 98 112 123 131 137 144 149 151 150 148 144 137 139 149 160 168 177 183 183 180 177 175 175 177 182
269 259 247 240 239 242 241 238 236 234 232 241 252 248 232 226 238 244 170 98 87 90 100 113 131 149 162 171 178 180 184 202 230 259 282 291 297 305 312 321 327 322 315 326 352 16 33 46 52 50 48 49 51 55 59 64 66 66 66 67 68 71 77 86 98 113 124 136 146 152 155 157 153 147 148 156 164 172 179 181 179 177 176 178 181 185 190
267 256 246 238 234 236 237 237 235 232 227 225 229 236 229 215 208 217 218 199 127 93 85 86 94 108 118 123 125 121 117 125 146 163 184 229 282 309 306 305 310 312 309 309 315 325 337 356 18 30 36 42 46 48 52 57 62 65 68 69 69 71 73 76 81 87 93 100 112 130 150 162 164 162 162 164 168 173 177 179 181 182 184 186 189 194 199
266 254 245 237 233 232 235 236 235 232 228 221 216 217 222 220 215 217 222 218 199 169 132 98 89 92 94 94 94 94 95 99 108 113 111 102 86 69 44 334 312 307 303 305 310 315 317 321 327 336 348 6 23 33 41 47 53 58 62 64 65 65 65 67 69 71 72 74 75 79 91 125 154 163 168 170 174 177 180 183 186 189 193 197 202 207 212
268 254 244 237 233 231 232 233 233 231 229 223 214 209 213 220 220 220 221 222 216 210 208 203 173 132 118 107 96 87 82 77 75 77 77 71 61 55 50 43 36 23 351 322 315 318 321 321 320 320 321 325 333 343 352 1 12 27 41 50 54 54 55 56 58 59 62 67 72 76 85 112 155 174 182 186 188 189 192 196 199 203 207 212 216 221 225
270 257 245 238 234 231 231 231 231 230 229 225 219 212 211 215 219 222 224 226 225 222 220 222 224 219 199 173 150 125 96 67 46 41 42 39 29 23 23 22 19 19 16 6 350 340 335 329 321 317 317 317 317 318 318 315 314 314 319 327 339 353 4 10 13 16 26 38 56 94 139 176 196 203 205 206 206 208 210 213 216 219 223 226 230 234 238
270 261 250 241 235 231 230 230 228 227 228 227 223 218 214 215 219 223 227 229 230 229 228 227 231 236 236 228 215 204 196 206 327 339 343 344 340 340 344 345 341 338 339 341 340 340 338 334 329 322 315 310 307 306 305 304 302 299 298 297 296 295 294 293 290 286 283 278 270 260 250 242 237 234 232 231 232 232 233 234 235 236 238 240 242 245 247
268 263 254 244 237 233 231 230 228 227 227 228 227 223 220 218 220 224 229 232 233 233 233 232 235 240 244 244 241 239 240 248 261 285 309 320 325 327 330 331 328 324 319 316 314 313 312 312 314 313 311 307 302 298 295 294 294 292 290 288 286 284 282 282 280 278 276 273 270 267 263 258 252 248 247 246 246 246 247 248 249 251 252 253 254 255 256
267 264 258 249 240 235 233 232 231 230 229 229 230 229 225 222 222 224 228 232 236 236 236 237 238 240 244 247 249 249 251 256 261 268 279 293 305 313 319 323 326 326 323 320 317 313 310 306 303 300 300 299 298 295 291 290 289 287 286 285 282 279 277 275 273 272 272 270 269 267 265 262 259 256 255 253 253 252 252 253 255 256 258 259 259 260 261
267 264 261 255 246 238 234 234 234 233 231 231 232 233 231 228 226 226 227 231 236 238 239 240 242 243 245 247 250 252 253 257 263 268 275 282 290 298 305 311 316 321 322 322 321 319 316 314 311 307 303 299 296 293 289 287 284 283 282 281 280 278 276 274 272 270 269 268 267 266 265 264 262 261 260 259 258 258 258 258 258 259 259 259 260 260 260
Height
5674 5676 5677 5678 5680 5681 5681 5681 5681 5681 5681 5682 5682 5683 5683 5685 5686 5684 5684 5687 5688 5687 5687 5687 5686 5687 5688 5689 5690 5691 5692 5693 5694 5695 5696 5696 5696 5696 5696 5696 5696 5697 5698 5698 5698 5697 5696 5696 5696 5696 5697 5697 5698 5699 5700 5701 5700 5699 5700 5702 5702 5702 5701 5701 5702 5704 5704 5704 5704 5704 5703 5704 5705 5706 5706 5707 5708 5709 5710 5710 5710 5711 5711 5711 5710 5710 5711
5669 5672 5673 5674 5676 5677 5677 5677 5677 5678 5678 5678 5678 5678 5679 5680 5680 5678 5680 5683 5683 5683 5683 5681 5681 5683 5684 5685 5686 5687 5687 5687 5689 5690 5690 5691 5691 5692 5692 5691 5691 5692 5693 5694 5694 5694 5693 5692 5692 5692 5692 5693 5694 5695 5696 5696 5696 5696 5697 5698 5699 5699 5698 5697 5698 5700 5700 5701 5702 5701 5700 5700 5702 5702 5702 5702 5704 5705 5706 5706 5705 5706 5706 5706 5706 5706 5706
5666 5668 5669 5669 5671 5673 5673 5672 5673 5673 5673 5673 5674 5675 5675 5676 5676 5675 5676 5677 5678 5677 5677 5676 5676 5677 5678 5679 5681 5682 5683 5683 5684 5685 5685 5684 5684 5684 5684 5684 5685 5687 5688 5688 5689 5689 5688 5688 5688 5688 5687 5688 5689 5690 5691 5691 5691 5691 5691 5692 5693 5694 5693 5692 5693 5694 5694 5696 5697 5696 5695 5696 5697 5698 5697 5697 5699 5700 5701 5700 5700 5700 5701 5701 5701 5701 5701
5662 5663 5664 5664 5666 5667 5667 5667 5668 5667 5667 5669 5670 5671 5672 5671 5671 5671 5672 5672 5671 5670 5670 5671 5671 5671 5672 5673 5674 5676 5677 5678 5678 5679 5680 5679 5679 5677 5676 5676 5678 5679 5681 5682 5682 5682 5683 5683 5684 5684 5683 5684 5684 5685 5685 5685 5685 5686 5686 5687 5688 5689 5688 5688 5689 5689 5690 5690 5691 5690 5690 5690 5691 5691 5692 5692 5693 5694 5694 5694 5694 5695 5695 5696 5696 5696 5696
5657 5657 5658 5659 5660 5660 5660 5661 5661 5661 5661 5664 5665 5665 5666 5666 5666 5667 5667 5668 5666 5664 5664 5666 5665 5665 5665 5666 5667 5668 5670 5671 5672 5672 5673 5673 5673 5672 5671 5670 5671 5672 5673 5674 5675 5676 5677 5679 5680 5680 5679 5679 5680 5680 5679 5680 5681 5681 5682 5682 5683 5684 5684 5684 5684 5685 5685 5685 5684 5684 5684 5684 5684 5685 5686 5686 5687 5688 5688 5689 5689 5689 5689 5690 5690 5690 5690
5650 5651 5652 5653 5653 5653 5653 5654 5655 5655 5656 5658 5659 5659 5660 5660 5661 5661 5662 5663 5661 5659 5659 5660 5660 5659 5660 5660 5661 5662 5663 5664 5665 5666 5665 5665 5665 5665 5665 5665 5665 5665 5665 5666 5667 5669 5671 5672 5673 5673 5674 5674 5674 5674 5673 5674 5676 5677 5677 5677 5678 5678 5678 5678 5679 5679 5679 5679 5679 5678 5678 5679 5679 5679 5679 5680 5680 5681 5681 5682 5682 5683 5683 5683 5684 5684 5684
5643 5643 5645 5646 5646 5647 5648 5648 5648 5649 5650 5651 5652 5653 5653 5654 5655 5656 5656 5657 5655 5653 5653 5654 5654 5654 5654 5654 5655 5656 5657 5658 5659 5659 5659 5659 5659 5659 5659 5659 5660 5660 5659 5659 5660 5661 5662 5663 5663 5664 5666 5667 5667 5668 5668 5669 5670 5671 5671 5672 5673 5673 5673 5673 5673 5673 5674 5674 5674 5674 5674 5674 5674 5674 5674 5675 5675 5675 5675 5676 5676 5677 5677 5678 5678 5678 5678
5636 5636 5637 5638 5639 5641 5641 5640 5641 5642 5643 5645 5646 5646 5646 5647 5648 5649 5650 5650 5649 5647 5646 5647 5648 5648 5647 5648 5649 5650 5650 5651 5651 5652 5653 5653 5653 5653 5653 5653 5654 5655 5655 5655 5654 5653 5653 5654 5655 5656 5657 5658 5659 5661 5663 5663 5663 5664 5665 5666 5667 5668 5669 5668 5668 5668 5668 5669 5669 5669 5669 5669 5669 5669 5669 5669 5669 5670 5670 5670 5670 5670 5671 5671 5672 5672 5672
5629 5630 5631 5631 5631 5633 5634 5635 5635 5637 5637 5638 5639 5639 5639 5640 5640 5642 5642 5643 5642 5641 5640 5641 5642 5642 5641 5641 5640 5641 5642 5642 5643 5643 5645 5646 5646 5646 5647 5647 5647 5649 5650 5650 5649 5647 5646 5646 5648 5649 5649 5650 5651 5654 5656 5656 5656 5657 5657 5658 5660 5662 5662 5663 5663 5663 5662 5663 5663 5663 5663 5663 5663 5663 5663 5663 5664 5664 5664 5664 5663 5663 5663 5663 5663 5663 5664
5623 5625 5626 5624 5624 5626 5629 5630 5631 5632 5632 5631 5632 5632 5632 5632 5633 5633 5634 5634 5635 5635 5635 5635 5635 5635 5635 5634 5633 5633 5633 5634 5634 5634 5635 5637 5638 5639 5640 5640 5640 5641 5642 5642 5642 5641 5640 5640 5641 5642 5642 5642 5643 5645 5646 5648 5648 5648 5649 5650 5651 5653 5654 5655 5656 5657 5657 5657 5657 5656 5656 5656 5656 5657 5657 5657 5657 5657 5657 5657 5657 5657 5657 5656 5656 5656 5656
5617 5618 5619 5618 5618 5620 5622 5624 5625 5626 5626 5625 5625 5625 5624 5624 5626 5626 5626 5627 5628 5628 5628 5629 5629 5629 5629 5628 5627 5626 5626 5626 5626 5626 5626 5627 5629 5630 5631 5631 5631 5632 5633 5633 5634 5634 5634 5634 5634 5635 5635 5635 5635 5636 5637 5638 5640 5640 5641 5642 5644 5644 5645 5647 5648 5649 5649 5650 5650 5650 5650 5650 5650 5650 5650 5650 5651 5651 5650 5651 5651 5651 5651 5650 5650 5650 5650
5611 5612 5612 5612 5612 5612 5614 5617 5618 5618 5619 5619 5618 5617 5617 5619 5620 5620 5620 5621 5621 5621 5622 5623 5623 5623 5622 5622 5622 5621 5620 5619 5619 5618 5618 5618 5619 5620 5621 5621 5622 5623 5623 5624 5625 5625 5626 5626 5627 5628 5628 5628 5627 5628 5629 5629 5631 5632 5632 5634 5635 5637 5638 5639 5640 5641 5642 5643 5643 5643 5643 5643 5643 5644 5644 5644 5644 5643 5643 5644 5644 5644 5644 5644 5643 5643 5643
5606 5606 5605 5604 5605 5605 5607 5610 5610 5610 5612 5612 5611 5611 5612 5614 5614 5613 5614 5615 5614 5614 5615 5615 5616 5616 5615 5615 5615 5615 5614 5613 5612 5611 5610 5609 5610 5611 5611 5612 5612 5613 5614 5615 5616 5616 5617 5618 5618 5620 5620 5620 5620 5621 5621 5622 5623 5624 5624 5625 5626 5627 5629 5630 5631 5632 5634 5635 5636 5637 5637 5637 5637 5638 5639 5639 5638 5638 5637 5638 5638 5637 5637 5637 5637 5636 5636
5600 5599 5599 5598 5598 5599 5600 5602 5603 5603 5604 5604 5604 5605 5607 5607 5606 5606 5608 5608 5607 5607 5607 5607 5607 5608 5607 5607 5607 5607 5606 5606 5605 5605 5604 5602 5602 5602 5603 5603 5603 5604 5605 5606 5607 5608 5609 5609 5610 5610 5611 5612 5612 5613 5614 5615 5615 5616 5617 5618 5618 5618 5620 5621 5622 5622 5623 5624 5626 5628 5630 5630 5631 5632 5633 5633 5633 5633 5632 5632 5632 5631 5631 5631 5630 5629 5629
5594 5593 5593 5593 5593 5593 5594 5596 5597 5597 5597 5597 5597 5599 5599 5599 5600 5601 5601 5601 5601 5600 5600 5599 5599 5599 5599 5599 5599 5598 5598 5597 5597 5597 5597 5596 5595 5595 5595 5595 5594 5594 5595 5596 5598 5599 5600 5600 5600 5600 5601 5602 5602 5604 5606 5607 5608 5608 5609 5609 5609 5609 5610 5611 5612 5613 5614 5615 5616 5618 5620 5622 5623 5624 5625 5626 5627 5627 5627 5628 5627 5626 5626 5625 5624 5623 5622
5589 5588 5588 5588 5588 5589 5590 5591 5592 5591 5592 5592 5592 5592 5592 5593 5593 5594 5594 5593 5593 5592 5592 5591 5590 5590 5590 5590 5590 5590 5589 5589 5588 5588 5588 5588 5588 5587 5586 5586 5585 5585 5585 5586 5588 5589 5590 5590 5590 5590 5591 5591 5592 5594 5596 5598 5599 5599 5600 5600 5600 5601 5601 5602 5604 5605 5605 5606 5607 5609 5611 5613 5615 5616 5616 5617 5618 5619 5620 5621 5622 5622 5621 5620 5619 5617 5616
5585 5585 5584 5584 5585 5585 5586 5586 5586 5586 5587 5587 5587 5587 5587 5586 5586 5586 5585 5584 5584 5583 5583 5583 5582 5582 5582 5581 5581 5580 5580 5580 5579 5579 5579 5578 5578 5578 5578 5578 5577 5575 5576 5577 5578 5579 5580 5580 5580 5580 5581 5581 5582 5584 5586 5587 5588 5589 5590 5590 5591 5592 5593 5594 5595 5596 5597 5598 5599 5600 5602 5604 5606 5607 5607 5607 5608 5610 5611 5612 5614 5614 5615 5614 5614 5612 5611
5582 5581 5580 5581 5581 5582 5581 5582 5581 5581 5581 5581 5581 5580 5579 5578 5577 5577 5577 5576 5575 5575 5574 5574 5574 5573 5573 5572 5572 5571 5570 5570 5569 5568 5569 5568 5568 5568 5568 5568 5567 5567 5567 5568 5568 5569 5570 5570 5570 5570 5571 5571 5571 5573 5576 5576 5577 5578 5579 5580 5581 5583 5584 5586 5587 5588 5589 5590 5591 5592 5594 5596 5597 5597 5598 5599 5600 5601 5602 5604 5604 5605 5606 5607 5608 5607 5605
5578 5577 5577 5577 5578 5577 5577 5577 5576 5575 5574 5573 5573 5572 5571 5570 5570 5569 5569 5568 5567 5566 5565 5565 5565 5565 5564 5563 5563 5562 5560 5560 5559 5558 5558 5558 5558 5558 5558 5557 5557 5557 5557 5559 5559 5560 5560 5560 5559 5559 5559 5560 5561 5563 5566 5566 5566 5567 5568 5569 5571 5572 5574 5576 5577 5578 5579 5581 5583 5584 5585 5586 5587 5589 5590 5591 5592 5593 5594 5596 5596 5597 5598 5600 5601 5599 5598
5573 5572 5571 5572 5572 5572 5571 5571 5570 5569 5568 5567 5566 5565 5564 5563 5562 5562 5561 5559 5558 5558 5558 5557 5557 5556 5555 5553 5553 5553 5551 5550 5549 5549 5549 5548 5548 5548 5547 5546 5546 5546 5547 5548 5549 5550 5551 5552 5550 5549 5549 5550 5551 5553 5555 5556 5556 5557 5557 5559 5560 5562 5563 5565 5566 5568 5570 5572 5574 5575 5576 5577 5579 5581 5583 5584 5585 5586 5587 5588 5589 5590 5592 5593 5593 5592 5592
5567 5567 5566 5566 5566 5565 5565 5564 5564 5563 5562 5562 5561 5559 5557 5556 5556 5555 5553 5552 5551 5550 5550 5549 5548 5547 5545 5544 5544 5543 5542 5541 5540 5539 5538 5538 5538 5537 5537 5536 5535 5535 5536 5537 5538 5540 5542 5542 5541 5540 5540 5541 5541 5542 5543 5544 5545 5546 5547 5548 5550 5551 5553 5555 5556 5558 5559 5562 5565 5566 5567 5568 5571 5573 5575 5577 5578 5579 5580 5581 5582 5583 5585 5585 5585 5585 5586
5563 5562 5562 5561 5560 5559 5559 5558 5558 5557 5557 5556 5555 5553 5552 5551 5549 5548 5546 5545 5544 5542 5541 5540 5539 5537 5536 5535 5534 5534 5532 5531 5529 5529 5528 5528 5528 5527 5526 5525 5524 5524 5524 5525 5526 5528 5530 5530 5530 5531 5532 5533 5532 5532 5533 5533 5534 5535 5537 5538 5540 5542 5543 5545 5547 5548 5550 5552 5555 5557 5558 5560 5562 5564 5567 5569 5570 5572 5573 5574 5575 5577 5577 5578 5578 5579 5580
5558 5558 5557 5556 5555 5555 5554 5554 5553 5552 5551 5550 5548 5547 5546 5545 5543 5542 5540 5539 5537 5535 5533 5532 5530 5528 5527 5526 5525 5524 5522 5520 5519 5518 5518 5518 5518 5517 5516 5515 5515 5514 5513 5513 5514 5516 5517 5517 5518 5520 5521 5522 5523 5522 5522 5523 5524 5525 5527 5528 5530 5532 5534 5536 5538 5539 5541 5543 5545 5548 5550 5552 5554 5556 5559 5561 5563 5565 5566 5568 5569 5570 5570 5571 5571 5572 5573
5553 5552 5552 5551 5551 5550 5550 5549 5548 5547 5546 5544 5543 5542 5540 5538 5537 5535 5534 5532 5530 5528 5526 5524 5523 5521 5520 5518 5516 5515 5513 5511 5510 5509 5508 5508 5508 5508 5507 5506 5505 5504 5504 5503 5503 5504 5504 5505 5506 5508 5509 5511 5511 5511 5511 5512 5513 5514 5516 5518 5520 5523 5525 5526 5528 5530 5532 5534 5537 5539 5542 5544 5546 5548 5551 5554 5556 5558 5560 5561 5562 5563 5563 5564 5565 5566 5566
5549 5548 5547 5546 5546 5545 5544 5543 5542 5542 5540 5538 5537 5535 5533 5532 5530 5529 5527 5525 5523 5521 5520 5518 5516 5515 5513 5511 5509 5507 5506 5504 5503 5502 5501 5500 5499 5498 5497 5496 5496 5495 5495 5495 5495 5495 5495 5495 5495 5496 5498 5499 5500 5499 5500 5501 5502 5504 5506 5508 5511 5513 5515 5517 5519 5521 5523 5526 5529 5531 5533 5535 5538 5540 5543 5546 5549 5551 5553 5554 5555 5556 5557 5558 5559 5560 5560
5545 5544 5543 5542 5541 5540 5539 5538 5536 5535 5534 5532 5530 5528 5527 5525 5524 5522 5521 5519 5518 5516 5515 5513 5512 5510 5508 5506 5504 5502 5501 5499 5497 5495 5494 5493 5491 5490 5489 5489 5488 5488 5488 5488 5488 5488 5487 5487 5487 5487 5488 5489 5489 5489 5490 5491 5492 5494 5496 5498 5501 5504 5506 5508 5510 5512 5514 5517 5520 5523 5525 5527 5530 5533 5535 5538 5541 5543 5545 5547 5548 5550 5551 5552 5553 5554 5554
5541 5539 5538 5537 5536 5535 5533 5532 5530 5529 5527 5525 5524 5522 5521 5519 5518 5517 5516 5515 5514 5512 5511 5510 5508 5506 5504 5502 5500 5498 5496 5494 5492 5490 5488 5487 5486 5485 5484 5484 5483 5483 5483 5483 5483 5482 5481 5480 5480 5479 5480 5480 5480 5480 5481 5482 5483 5484 5486 5488 5490 5493 5496 5499 5501 5503 5505 5508 5511 5515 5517 5520 5522 5525 5527 5530 5533 5536 5538 5540 5542 5543 5545 5546 5547 5548 5549
5536 5535 5534 5533 5531 5530 5528 5526 5525 5523 5521 5520 5519 5518 5516 5516 5515 5514 5513 5512 5511 5509 5508 5506 5504 5502 5500 5498 5496 5494 5491 5489 5488 5486 5484 5483 5482 5481 5480 5479 5479 5479 5479 5479 5478 5477 5476 5475 5474 5473 5474 5473 5473 5473 5473 5473 5474 5475 5477 5478 5480 5483 5486 5489 5491 5493 5496 5499 5502 5506 5509 5512 5514 5517 5519 5522 5526 5528 5531 5533 5535 5537 5538 5540 5541 5542 5543
5532 5531 5530 5528 5527 5525 5523 5522 5520 5519 5517 5516 5516 5515 5514 5513 5512 5511 5510 5509 5508 5507 5505 5503 5501 5499 5497 5494 5492 5490 5488 5486 5485 5483 5481 5480 5478 5477 5476 5476 5475 5475 5475 5475 5475 5474 5472 5471 5470 5469 5469 5468 5467 5467 5467 5467 5467 5468 5469 5470 5472 5474 5477 5479 5482 5484 5487 5490 5494 5497 5500 5504 5507 5509 5512 5515 5518 5521 5524 5526 5528 5530 5532 5534 5535 5536 5537
5528 5527 5525 5524 5522 5521 5519 5518 5517 5515 5514 5514 5513 5512 5511 5511 5510 5509 5508 5507 5506 5504 5503 5501 5498 5496 5494 5491 5489 5488 5486 5485 5484 5482 5480 5478 5477 5475 5474 5474 5473 5473 5473 5473 5472 5471 5470 5469 5468 5467 5466 5465 5464 5464 5463 5463 5463 5464 5464 5465 5466 5468 5470 5472 5474 5476 5479 5482 5486 5489 5492 5496 5499 5502 5506 5509 5512 5515 5517 5520 5522 5524 5526 5528 5530 5531 5533
5524 5522 5521 5520 5518 5517 5516 5515 5514 5513 5512 5512 5511 5510 5509 5509 5508 5507 5506 5505 5504 5503 5501 5499 5497 5494 5492 5490 5489 5487 5486 5485 5484 5482 5480 5479 5477 5476 5475 5474 5473 5473 5472 5472 5471 5470 5470 5469 5468 5467 5465 5464 5463 5462 5461 5461 5461 5461 5462 5462 5463 5464 5466 5467 5469 5471 5473 5476 5480 5483 5486 5490 5493 5497 5500 5504 5507 5509 5512 5514 5517 5519 5521 5523 5525 5526 5528
5520 5519 5517 5516 5515 5514 5513 5512 5512 5511 5510 5510 5509 5508 5507 5507 5506 5505 5504 5503 5503 5502 5500 5499 5497 5495 5493 5491 5490 5489 5488 5486 5485 5483 5482 5480 5478 5477 5476 5475 5474 5473 5473 5472 5471 5470 5470 5469 5468 5466 5464 5462 5461 5460 5460 5460 5460 5460 5460 5461 5462 5462 5463 5464 5466 5467 5469 5472 5475 5478 5482 5486 5489 5493 5496 5500 5503 5505 5508 5510 5513 5515 5517 5519 5521 5522 5524
5517 5515 5514 5513 5512 5512 5511 5510 5510 5509 5508 5508 5507 5506 5506 5505 5505 5504 5503 5502 5502 5501 5500 5499 5497 5496 5494 5493 5492 5491 5490 5488 5487 5486 5483 5481 5479 5479 5478 5477 5476 5475 5474 5473 5472 5471 5470 5469 5467 5466 5464 5462 5460 5460 5460 5460 5460 5460 5460 5460 5460 5461 5462 5463 5463 5465 5467 5469 5472 5476 5479 5483 5487 5490 5493 5496 5499 5502 5504 5507 5510 5512 5514 5516 5518 5520 5521
5514 5512 5511 5510 5510 5509 5509 5508 5508 5507 5507 5506 5505 5505 5504 5504 5503 5502 5502 5501 5501 5501 5500 5499 5498 5497 5496 5494 5494 5493 5492 5490 5489 5487 5484 5482 5482 5481 5481 5479 5478 5477 5476 5475 5473 5473 5472 5470 5468 5466 5464 5463 5461 5461 5461 5461 5461 5461 5460 5460 5460 5460 5461 5462 5462 5464 5466 5468 5471 5475 5479 5482 5485 5488 5491 5494 5496 5499 5502 5505 5507 5510 5512 5514 5516 5518 5520
5511 5510 5509 5508 5508 5508 5507 5507 5506 5506 5505 5505 5504 5503 5503 5502 5502 5501 5501 5501 5501 5501 5500 5500 5499 5498 5497 5496 5495 5494 5493 5491 5490 5488 5486 5485 5484 5484 5483 5481 5480 5479 5478 5477 5476 5475 5473 5472 5470 5468 5466 5464 5463 5463 5463 5463 5463 5463 5463 5462 5462 5462 5462 5462 5463 5465 5467 5469 5472 5476 5480 5483 5486 5489 5491 5494 5496 5499 5501 5504 5506 5509 5511 5513 5515 5517 5518
5509 5508 5507 5507 5507 5506 5506 5505 5505 5505 5504 5504 5503 5502 5502 5501 5501 5501 5501 5501 5500 5500 5500 5499 5499 5498 5498 5497 5496 5495 5494 5492 5490 5489 5488 5487 5486 5485 5484 5483 5482 5481 5480 5479 5478 5476 5475 5474 5472 5470 5468 5467 5466 5466 5466 5466 5467 5467 5467 5466 5466 5466 5466 5466 5467 5468 5470 5472 5475 5478 5481 5485 5488 5491 5493 5495 5497 5499 5501 5503 5506 5508 5510 5512 5514 5515 5517
5507 5506 5506 5506 5505 5505 5504 5504 5504 5504 5503 5503 5502 5502 5501 5500 5500 5500 5500 5500 5500 5500 5500 5500 5499 5499 5498 5497 5497 5496 5495 5493 5492 5490 5490 5489 5488 5487 5486 5485 5484 5483 5482 5481 5480 5478 5477 5476 5474 5473 5472 5471 5470 5469 5468 5469 5469 5469 5469 5469 5470 5470 5471 5471 5472 5473 5475 5477 5479 5481 5484 5487 5490 5492 5493 5495 5497 5499 5501 5503 5505 5508 5509 5511 5513 5515 5516
5505 5504 5504 5504 5504 5503 5503 5503 5503 5503 5503 5502 5502 5502 5501 5500 5500 5500 5500 5500 5500 5499 5499 5499 5499 5499 5499 5498 5497 5497 5496 5495 5493 5492 5491 5491 5490 5489 5489 5488 5487 5486 5485 5483 5482 5480 5479 5478 5477 5476 5475 5474 5473 5472 5471 5471 5472 5472 5472 5473 5473 5473 5474 5475 5476 5477 5479 5480 5482 5484 5486 5489 5491 5492 5494 5495 5497 5499 5501 5503 5505 5507 5509 5510 5512 5513 5515
5503 5502 5502 5502 5502 5502 5502 5502 5502 5502 5502 5502 5502 5501 5501 5500 5499 5499 5499 5499 5499 5499 5499 5499 5499 5499 5499 5498 5498 5497 5497 5496 5494 5493 5493 5492 5492 5491 5490 5490 5489 5489 5488 5486 5484 5483 5481 5480 5479 5479 5478 5478 5477 5476 5475 5474 5475 5475 5476 5476 5476 5476 5477 5478 5479 5480 5481 5483 5485 5486 5488 5490 5492 5493 5495 5496 5498 5500 5502 5503 5505 5507 5508 5509 5511 5512 5514
5501 5501 5501 5501 5501 5501 5501 5501 5501 5501 5501 5501 5501 5501 5500 5500 5499 5499 5499 5498 5498 5498 5498 5499 5499 5499 5499 5498 5498 5498 5497 5496 5495 5495 5494 5494 5493 5492 5492 5491 5491 5491 5490 5488 5487 5485 5484 5483 5482 5481 5481 5481 5480 5480 5479 5478 5478 5478 5478 5479 5479 5480 5480 5481 5482 5483 5484 5486 5487 5489 5490 5492 5493 5494 5496 5497 5499 5500 5502 5503 5505 5506 5507 5509 5510 5512 5514
5498 5499 5499 5499 5499 5499 5499 5500 5500 5500 5500 5500 5501 5501 5500 5500 5499 5499 5499 5498 5498 5498 5498 5499 5499 5499 5499 5498 5498 5498 5497 5497 5496 5496 5495 5495 5494 5494 5493 5493 5493 5492 5491 5491 5490 5488 5487 5486 5485 5484 5484 5483 5483 5482 5482 5482 5482 5482 5482 5482 5482 5483 5483 5484 5485 5486 5487 5489 5490 5491 5492 5493 5494 5495 5497 5498 5499 5500 5502 5503 5504 5505 5507 5508 5510 5512 5514
5496 5496 5497 5498 5498 5498 5498 5498 5498 5499 5499 5500 5500 5500 5500 5500 5500 5499 5499 5498 5498 5498 5498 5498 5498 5498 5499 5499 5498 5498 5498 5497 5497 5497 5496 5496 5495 5495 5494 5494 5494 5493 5493 5492 5492 5491 5490 5489 5488 5487 5486 5486 5485 5485 5484 5484 5484 5485 5485 5485 5485 5485 5485 5486 5487 5488 5489 5490 5491 5492 5493 5494 5495 5496 5497 5498 5499 5500 5501 5502 5503 5505 5506 5508 5510 5512 5514
5494 5494 5495 5496 5496 5496 5497 5497 5497 5498 5498 5499 5499 5499 5499 5499 5499 5499 5499 5499 5499 5498 5498 5498 5498 5498 5498 5498 5498 5498 5498 5497 5497 5497 5496 5496 5496 5495 5495 5495 5494 5494 5494 5493 5493 5492 5492 5491 5491 5490 5489 5489 5488 5487 5487 5487 5486 5486 5486 5487 5487 5487 5487 5488 5488 5489 5490 5491 5491 5492 5493 5494 5495 5495 5496 5497 5498 5499 5500 5502 5503 5505 5506 5508 5510 5512 5514
5493 5492 5493 5494 5494 5495 5495 5495 5496 5496 5497 5498 5498 5498 5499 5499 5499 5499 5499 5499 5499 5498 5498 5498 5498 5498 5498 5498 5498 5497 5497 5497 5497 5497 5496 5496 5496 5496 5495 5495 5495 5494 5494 5494 5493 5493 5493 5493 5492 5492 5492 5491 5491 5490 5490 5489 5489 5489 5489 5489 5489 5489 5489 5489 5490 5490 5491 5491 5492 5493 5493 5494 5495 5495 5496 5497 5498 5499 5501 5502 5504 5505 5507 5508 5510 5512 5513
5491 5490 5491 5492 5492 5493 5493 5494 5494 5495 5495 5496 5497 5497 5498 5498 5498 5498 5498 5498 5498 5498 5498 5498 5498 5498 5498 5497 5497 5497 5497 5497 5497 5497 5497 5496 5496 5496 5495 5495 5495 5495 5494 5494 5494 5493 5493 5493 5493 5493 5493 5493 5493 5492 5492 5492 5491 5491 5491 5491 5491 5491 5491 5491 5491 5491 5492 5492 5492 5493 5494 5494 5495 5496 5497 5498 5499 5500 5501 5503 5504 5506 5507 5508 5509 5511 5512
5488 5488 5488 5489 5490 5491 5491 5492 5492 5493 5494 5494 5495 5496 5496 5497 5497 5497 5498 5498 5498 5498 5498 5498 5498 5498 5498 5497 5497 5497 5497 5497 5497 5497 5496 5496 5496 5496 5495 5495 5495 5495 5494 5494 5494 5494 5493 5493 5494 5494 5494 5494 5494 5494 5494 5494 5493 5493 5493 5492 5492 5492 5493 5493 5493 5493 5493 5493 5493 5494 5494 5495 5496 5497 5497 5498 5499 5500 5502 5503 5504 5505 5506 5507 5508 5510 5511
5486 5486 5486 5486 5487 5488 5489 5490 5490 5491 5492 5492 5493 5494 5495 5495 5496 5496 5496 5497 5497 5497 5497 5497 5497 5498 5497 5497 5497 5497 5497 5497 5497 5497 5496 5496 5496 5496 5495 5495 5495 5494 5494 5494 5494 5494 5494 5493 5493 5493 5494 5494 5494 5494 5494 5494 5494 5494 5494 5494 5494 5494 5494 5494 5494 5494 5494 5494 5495 5495 5495 5496 5496 5497 5498 5499 5500 5501 5502 5503 5504 5505 5506 5507 5508 5508 5509
5484 5484 5483 5484 5485 5485 5486 5487 5488 5489 5490 5490 5491 5492 5493 5493 5494 5495 5495 5495 5496 5496 5496 5496 5497 5497 5497 5497 5497 5497 5497 5497 5497 5497 5497 5496 5496 5496 5496 5495 5495 5494 5494 5494 5494 5494 5493 5493 5493 5493 5493 5493 5493 5494 5494 5494 5495 5495 5495 5495 5495 5495 5495 5495 5495 5495 5495 5496 5496 5496 5496 5497 5497 5498 5498 5499 5499 5500 5501 5502 5503 5504 5504 5505 5506 5507 5507
5481 5481 5481 5481 5482 5483 5483 5484 5485 5486 5487 5488 5489 5489 5490 5491 5492 5493 5493 5494 5494 5494 5495 5495 5495 5496 5496 5496 5496 5496 5496 5496 5496 5496 5496 5496 5496 5495 5495 5495 5495 5494 5494 5494 5494 5494 5493 5493 5493 5493 5493 5492 5493 5493 5493 5494 5494 5494 5494 5495 5495 5495 5495 5495 5495 5495 5495 5496 5496 5496 5496 5497 5497 5497 5498 5498 5499 5499 5500 5500 5501 5502 5502 5503 5503 5504 5505
5478 5478 5478 5478 5479 5479 5480 5481 5482 5483 5484 5485 5486 5487 5488 5489 5490 5490 5491 5492 5492 5493 5493 5493 5494 5494 5494 5495 5495 5495 5495 5495 5495 5495 5495 5495 5495 5494 5494 5494 5494 5493 5493 5493 5493 5493 5493 5493 5492 5492 5492 5492 5492 5492 5492 5492 5492 5493 5493 5493 5493 5494 5494 5494 5494 5495 5495 5495 5495 5495 5496 5496 5496 5496 5497 5497 5497 5498 5498 5498 5499 5499 5500 5500 5501 5501 5502
5475 5475 5475 5475 5476 5476 5477 5478 5479 5480 5481 5482 5483 5484 5485 5486 5487 5488 5488 5489 5490 5491 5491 5492 5492 5492 5493 5493 5493 5493 5493 5494 5494 5494 5494 5494 5494 5493 5493 5493 5493 5492 5492 5492 5492 5491 5491 5491 5491 5491 5491 5491 5491 5491 5491 5491 5491 5491 5491 5491 5491 5492 5492 5492 5493 5493 5493 5493 5493 5494 5494 5494 5494 5495 5495 5495 5495 5495 5496 5496 5496 5497 5497 5497 5498 5498 5498
5472 5472 5472 5472 5473 5473 5474 5475 5475 5477 5478 5479 5480 5481 5482 5483 5484 5485 5486 5486 5487 5488 5488 5489 5490 5490 5491 5491 5491 5491 5492 5492 5492 5492 5492 5492 5492 5492 5492 5491 5491 5491 5491 5490 5490 5490 5489 5489 5489 5489 5489 5489 5489 5489 5489 5489 5489 5489 5489 5489 5489 5489 5489 5489 5490 5490 5491 5491 5491 5491 5491 5491 5491 5492 5492 5492 5492 5493 5493 5493 5493 5494 5494 5494 5494 5494 5495